Location: ?????
(38.3715°N, 23.0573°E)
Time: 10:31:16
(UTC+00:00)

BREEZE-M DEB (TANK) - Pass Details

Date: 03 August 2024
Orbit: 317 x 14879 km, 49.5° (Epoch: 14 September)

Event Time Altitude Azimuth Distance (km) Brightness Sun altitude
Rises 18:22:16 0° 302° (WNW) 9,659 11.1 -9.0°
Reaches altitude 10° 18:31:43 10° 304° (WNW) 6,332 9.3 -10.6°
Maximum altitude 18:45:15 86° 33° (NNE) 996 3.5 -12.8°
Enters shadow 18:48:05 20° 123° (ESE) 1,498 3.9 -13.3°
